Regional Weather Roundup
Issued by NWS

Home | Current Version | Previous Version | Graphics & Text | Print | Product List | Glossary On
Versions: 1 2 3 4 5 6 7 8 9 10 11 12 13 14 15 16 17 18 19 20 21 22 23 24 25 26 27 28 29 30 31 32 33 34 35 36 37 38 39 40 41 42 43 44 45 46 47 48 49 50
000
ASUS45 KTFX 290910
RWRMT
MONTANA REGIONAL WEATHER ROUNDUP
NATIONAL WEATHER SERVICE GREAT FALLS MT
300 AM MDT FRI MAY 29 2015

NOTE: "FAIR" INDICATES FEW OR NO CLOUDS BELOW 12000 FEET WITH NO
SIGNIFICANT WEATHER AND/OR OBSTRUCTIONS TO VISIBILITY.

MTZ001>007-043-291000-
WEST OF THE DIVIDE

CITY           SKY/WX    TMP DP  RH WIND       PRES   REMARKS
KALISPELL      SUNNY     43  38  82 CALM      30.20S
MISSOULA       CLEAR     52  42  69 SE12      30.21F
BUTTE          CLOUDY    46  41  82 CALM      30.29S
MULLAN PASS    MOCLDY    44  43  96 SE12G25   30.22S
DEER LODGE       N/A     46  43  87 CALM      30.32S
EUREKA           N/A     52  46  82 CALM      30.20F
HAMILTON         N/A     46  43  87 E1        30.21S
LIBBY            N/A     52  50  93 SE5       30.20S
PLAINS           N/A     50  46  85 CALM      30.18S
RONAN            N/A     48  44  86 N1        30.22S
THOMPSON FALLS   N/A     52  48  86 E5        30.20F
$$

MTZ008-052>055-291000-
SOUTHWEST MONTANA

CITY           SKY/WX    TMP DP  RH WIND       PRES   REMARKS
BOZEMAN        CLOUDY    48  45  89 SW6       30.27S
DILLON         CLOUDY    47  43  86 NE7       30.27S
W YELLOWSTONE  PTCLDY    36  36 100 CALM      30.29S
$$

MTZ009-010-012-014-046-048-049-054-291000-
EAST SLOPES AND CENTRAL MONTANA

CITY           SKY/WX    TMP DP  RH WIND       PRES   REMARKS
CUT BANK       PTCLDY    36  36 100 S3        30.30F FOG
GREAT FALLS    CLOUDY    45  44  97 NE3       30.31S FOG
MALMSTROM AFB  CLOUDY    45  45 100 NE1       30.32S FOG
HELENA         CLOUDY    49  43  80 W7        30.29S
CONRAD           N/A     41  41 100 NW3       30.31R
$$

MTZ011-013-016-021-045-047-050-051-291000-
NORTH CENTRAL MONTANA

CITY           SKY/WX    TMP DP  RH WIND       PRES   REMARKS
HAVRE          CLEAR     37  36  96 W7        30.31S WCI  32
LEWISTOWN      CLOUDY    46  42  86 N6        30.30S
N BAR RANCH    CLOUDY    43  41  93 N7        30.31S
CHINOOK          N/A     39  39 100 CALM      30.32R
FORT BENTON      N/A     48  43  81 CALM      30.33S
$$

MTZ017>020-022>027-061-062-291000-
NORTHEAST MONTANA

CITY           SKY/WX    TMP DP  RH WIND       PRES   REMARKS
GLASGOW        CLEAR     38  34  85 NE7       30.28R
JORDAN           N/A     45  41  86 N10       30.26S
SIDNEY         CLOUDY    46  32  57 NW16G23   30.22S
WOLF POINT     CLEAR     39  35  86 N6        30.29R
MALTA            N/A     41  33  73 NW5       30.25R
PLENTYWOOD       N/A     34  30  86 NW8       30.27R WCI  27
POPLAR           N/A     37  36  93 W3        30.28S
SCOBEY           N/A     31  25  78 N3        30.25S
$$

MTZ028>42-056>058-291000-
SOUTHCENTRAL AND SOUTHEAST MONTANA

CITY           SKY/WX    TMP DP  RH WIND       PRES   REMARKS
BAKER          CLOUDY    46  42  86 N22       30.18R
BILLINGS       CLOUDY    49  46  90 N14       30.26R
LIVINGSTON     CLOUDY    49  44  83 NW6       30.26S
MILES CITY     CLOUDY    47  38  71 N20       30.22R
BIG TIMBER       N/A     48  45  87 NE5       30.29R
EKALAKA          N/A     45  42  89 N13       30.13R
LAUREL           N/A     49  45  86 N6        30.23R
ROUNDUP          N/A     46  41  83 N9        30.17S
$$

REGIONAL REPORTS...DAKOTAS

CITY           SKY/WX    TMP DP  RH WIND       PRES   REMARKS
WILLISTON      CLOUDY    46  34  62 N15       30.23R
MINOT          CLOUDY    47  38  71 N21G30    30.11R
DICKINSON      CLOUDY    47  44  90 N18G25    30.12R
BEACH          CLOUDY    45  45 100 N18       30.18R
CROSBY         CLOUDY    43  36  75 N18G24    30.25R
WATFORD CITY   CLOUDY    46  36  66 NE20      30.17R
BISMARCK       CLOUDY    52  47  83 N23G31    30.04R
GRAND FORKS    CLOUDY    50  46  86 N30G38    29.95R
FARGO          LGT RAIN  61  59  93 N17       29.87R FOG
BUFFALO SD       N/A     54  51  90 N16G26    30.03R
RAPID CITY     CLOUDY    56  52  86 NW21G30   30.04R
$$

REGIONAL REPORTS...WYOMING/IDAHO/WASHINGTON

CITY           SKY/WX    TMP DP  RH WIND       PRES   REMARKS
GILLETTE       CLOUDY    51  49  92 N12       30.14R
SHERIDAN       RAIN      51  49  92 W10       30.20S
BUFFALO WY     LGT RAIN  49  46  90 NW18G29   30.20R
CODY           CLOUDY    48  45  87 N7        30.25R
YELLOWSTONE LA   N/A     32  31  96 NW3       30.33R
IDAHO FALLS    CLEAR     45  43  93 N8        30.22S
SALMON         PTCLDY    45  43  93 S3        30.22S
BOISE          CLEAR     62  47  57 SE8       30.07R
SPOKANE        MOCLDY    59  51  75 E12       30.07S
$$

REGIONAL REPORTS...ALBERTA

CITY           SKY/WX    TMP DP  RH WIND       PRES   REMARKS
EDMONTON       CLEAR     36  27  69 E5        30.31S
CALGARY        MOCLDY    48  41  76 SE9       30.25F
LETHBRIDGE     CLEAR     37  37 100 S9        30.28F FOG     WCI  31
MEDICINE HAT   CLEAR     37  34  87 S3        30.32S
$$

REGIONAL REPORTS...SASKATCHEWAN

CITY           SKY/WX    TMP DP  RH WIND       PRES   REMARKS
SWIFT CURRENT  CLEAR     36  28  75 E6        30.31R WCI  31
REGINA         CLOUDY    41  30  65 NE10G17   30.32R
$$



USA.gov is the U.S. government's official web portal to all federal, state and local government web resources and services.